#timestamp,LO_Frequency,Hit 
1499396415.4,286046991.4,N
1499396435.3,286046991.0,N
1499396455.1,286046991.9,N
1499396456.0,286046991.9,N
1499396475.8,286046990.3,N
1499396495.7,286046990.4,N
1499396515.5,286046990.7,N
1499396535.3,286046990.8,N
1499396555.2,286046991.4,N
1499396575.0,286046991.1,N
1499396575.9,286046991.1,N
1499396595.8,286046992.5,N
1499396615.6,286046994.5,N
1499396635.4,286046994.3,N
1499396655.3,286046994.5,N
1499396675.1,286046994.3,N
1499396695.8,286046994.0,N
1499396715.7,286046994.7,N
1499396735.5,286046994.4,N
1499396755.4,286046994.8,N
1499396775.2,286046994.2,N
1499396795.0,286046994.7,N
1499396795.9,286046994.7,N
1499396815.8,286046996.3,N
1499396835.6,286046995.6,N
1499396855.5,286046991.8,N
1499396875.3,286046994.8,N
1499396895.1,286046993.4,N
1499396915.9,286046995.2,N
1499396935.7,286046994.9,N
1499396955.5,286046996.6,N
1499396975.4,286046997.5,N
1499396995.2,286046993.8,N
1499397015.1,286046997.5,N
1499397016.0,286046997.5,N
1499397035.8,286046997.1,N
1499397055.6,286046995.5,N
1499397075.5,286046997.8,N
1499397095.3,286046999.4,N
1499397115.1,286046996.7,N
1499397135.9,286046999.5,N
1499397155.7,286046996.7,N
1499397175.6,286046998.4,N
1499397195.4,286046998.3,N
1499397215.2,286046999.6,N
1499397235.1,286046997.6,N
1499397236.0,286046997.6,N
1499397255.8,286046995.8,N
1499397275.6,286046997.0,N
1499397295.5,286046999.2,N
1499397315.3,286047000.0,N
1499397335.2,286047000.5,N
1499397355.9,286046999.8,N
1499397375.7,286047002.2,N
1499397395.6,286047002.3,N
1499397415.4,286046999.8,N
1499397435.3,286046999.1,N
1499397455.1,286046996.7,N
1499397456.0,286046996.7,N
1499397475.8,286046998.8,N
1499397495.7,286046998.8,N
1499397515.5,286047001.1,N
1499397535.4,286047000.6,N
1499397555.2,286047002.7,N
1499397575.0,286047001.3,N
1499397575.9,286047001.3,N
1499397595.8,286047002.3,N
1499397615.6,286047001.1,N
1499397635.5,286047002.0,N
1499397655.3,286047002.3,N
1499397675.1,286047002.5,N
1499397695.9,286047001.6,N
1499397715.7,286047002.5,N
1499397735.5,286046999.7,N
1499397755.4,286047001.5,N
1499397775.2,286047001.6,N
1499397795.1,286047003.9,N
1499397796.0,286047003.9,N
1499397815.8,286047001.6,N
1499397835.6,286047002.2,N
1499397855.5,286047001.0,N
1499397875.3,286046998.8,N
1499397895.1,286046999.0,N
1499397915.9,286047001.0,N
1499397935.7,286047002.4,N
1499397955.6,286047002.2,N
1499397975.4,286047003.2,N
1499397995.2,286047003.1,N
1499398015.1,286047003.2,N
1499398016.0,286047003.2,N
1499398035.8,286047003.8,N
1499398055.7,286047001.4,N
1499398075.5,286047003.5,N
1499398095.3,286047004.3,N
1499398115.2,286047001.4,N
1499398135.0,286047000.3,N
1499398135.9,286047000.3,N
1499398155.8,286046999.7,N
1499398175.6,286047003.9,N
1499398195.4,286047003.8,N
1499398215.3,286047001.3,N
1499398235.1,286046998.5,N
1499398255.8,286046996.9,N
1499398275.7,286046996.9,N
1499398295.5,286046996.9,N
1499398315.4,286046996.5,N
1499398335.2,286046999.5,N
1499398355.0,286046999.6,N
1499398355.9,286046999.6,N
1499398375.8,286046997.3,N
1499398395.6,286046998.8,N
1499398415.5,286046999.1,N
1499398435.3,286046999.3,N
1499398455.1,286046999.0,N
1499398475.9,286046996.7,N
1499398495.7,286046998.6,N
1499398515.5,286047000.9,N
1499398535.4,286047000.0,N
1499398555.2,286047000.9,N
1499398575.1,286047000.8,N
1499398576.0,286047000.8,N
1499398595.8,286047002.4,N
1499398615.6,286047001.7,N
1499398635.5,286047002.0,N
1499398655.3,286047002.6,N
1499398675.1,286046998.2,N
1499398695.9,286047001.0,N
1499398715.7,286046999.9,N
1499398735.6,286046998.4,N
1499398755.4,286046998.3,N
1499398775.2,286046999.4,N
1499398795.1,286047000.9,N
1499398796.0,286047000.9,N
1499398815.8,286047000.3,N
1499398835.6,286047000.6,N
1499398855.5,286046998.1,N
1499398875.3,286046998.7,N
1499398895.2,286046998.7,N
1499398915.9,286046999.4,N
1499398935.7,286046998.8,N
1499398955.6,286046998.3,N
1499398975.4,286047000.8,N
1499398995.2,286047002.4,N
1499399015.1,286047000.5,N
1499399016.0,286047000.5,N
1499399035.8,286047000.5,N
1499399055.7,286047001.2,N
1499399075.5,286047001.1,N
1499399095.3,286046998.1,N
1499399115.2,286046998.1,N
1499399135.0,286047002.2,N
1499399135.9,286047002.2,N
1499399155.7,286047003.6,N
1499399175.6,286047004.3,N
1499399195.4,286047002.0,N
1499399215.3,286047002.4,N
1499399235.1,286047001.8,N
1499399236.0,286047001.8,N
1499399255.8,286047004.2,N
1499399275.7,286047002.2,N
1499399295.5,286047002.7,N
1499399315.4,286046999.9,N
1499399335.2,286047001.0,N
1499399355.0,286047001.8,N
1499399355.9,286047001.8,N
1499399375.8,286047001.3,N
1499399395.6,286047003.4,N
1499399415.4,286047003.7,N
1499399435.3,286047004.2,N
1499399455.1,286047002.4,N
1499399475.9,286047003.9,N
1499399495.7,286047003.4,N
1499399515.5,286047004.1,N
1499399535.4,286047004.4,N
1499399555.2,286047002.2,N
1499399575.0,286047004.0,N
1499399575.9,286047004.0,N
1499399595.8,286047005.3,N
1499399615.6,286047005.7,N
1499399635.5,286047005.0,N
1499399655.3,286047007.5,N
1499399675.1,286047004.6,N
1499399695.9,286047007.1,N
1499399715.7,286047007.3,N
1499399735.4,286047006.3,N
1499399755.2,286047005.7,N
1499399775.1,286047005.8,N
1499399776.0,286047005.8,N
1499399795.8,286047005.5,N
1499399815.6,286047002.9,N
1499399835.5,286047004.6,N
1499399855.3,286047004.0,N
1499399875.1,286047004.0,N
1499399895.9,286047004.7,N
1499399915.7,286047004.7,N
1499399935.6,286047005.5,N
1499399955.4,286047003.7,N
1499399975.2,286047004.1,N
1499399995.1,286047004.2,N
1499399996.0,286047004.2,N
